Location: Knowlton
(51.2333°N, 1.2667°E)
Time: 05:08:34
(UTC+00:00)

Meteor 2-17 Rocket - Pass Details

Date: 18 April 2021
Orbit: 936 x 955 km, 82.5° (Epoch: 06 May)

Event Time Altitude Azimuth Distance (km) Brightness Sun altitude
Rises 23:24:33 0° 347° (NNW) 3,632 8.8 -27.3°
Reaches altitude 10° 23:27:04 10° 345° (NNW) 2,686 7.8 -27.3°
Maximum altitude 23:33:09 68° 265° (W) 1,025 4.5 -27.4°
Enters shadow 23:33:43 64° 232° (SW) 1,051 4.4 -27.4°
